Regional Weather Roundup
Issued by NWS Little Rock, AR

Home | Current Version | Previous Version | Graphics & Text | Print | Product List | Glossary On
Versions: 1 2 3 4 5 6 7 8 9 10 11 12 13 14 15 16 17 18 19 20 21 22 23 24 25 26 27 28 29 30 31 32 33 34 35 36 37 38 39 40 41 42 43 44 45 46 47 48 49 50
000
ASUS44 KLZK 230612
RWRLZK

WEATHER ROUNDUP FOR ARKANSAS
NATIONAL WEATHER SERVICE LITTLE ROCK AR
1200 AM CST THU FEB 23 2017

NOTE: "FAIR" INDICATES FEW OR NO CLOUDS BELOW 12,000 FEET WITH NO
SIGNIFICANT WEATHER AND/OR OBSTRUCTIONS TO VISIBILITY.

ARZ001-003-010-029-230700-
NORTHWEST ARKANSAS

CITY           SKY/WX    TMP DP  RH WIND       PRES   REMARKS
FAYETTEVILLE   CLEAR     56  55  97 CALM      29.75S
6HR MIN TEMP:  52; 6HR MAX TEMP:  67;

FORT SMITH     PTCLDY    58  55  90 NE8       29.74F
6HR MIN TEMP:  57; 6HR MAX TEMP:  75;

HARRISON       CLEAR     55  54  96 SE8       29.76F
6HR MIN TEMP:  55; 6HR MAX TEMP:  67;

BENTONVILLE    CLEAR     55  52  88 SE5       29.74F
6HR MIN TEMP:  55; 6HR MAX TEMP:  70;

ROGERS         CLEAR     58  55  90 SE8       29.75S
6HR MIN TEMP:  58; 6HR MAX TEMP:  69;

SILOAM SPGS    CLEAR     59  52  77 S8        29.72F
6HR MIN TEMP:  59; 6HR MAX TEMP:  70;

HIGHFILL       CLEAR     55  52  89 S7        29.73F
6HR MIN TEMP:  54; 6HR MAX TEMP:  69;

$$

ARZ004-005-016-230700-
NORTH CENTRAL ARKANSAS

CITY           SKY/WX    TMP DP  RH WIND       PRES   REMARKS
BATESVILLE     PTCLDY    55  52  88 S3        29.80F
6HR MIN TEMP:  54; 6HR MAX TEMP:  61;

FLIPPIN        CLEAR     57  52  82 SE5       29.75F
6HR MIN TEMP:  57; 6HR MAX TEMP:  66;

MTN HOME       PTCLDY    55  54  96 CALM      29.76F
6HR MIN TEMP:  55; 6HR MAX TEMP:  63;

$$

ARZ040-041-230700-
WEST CENTRAL ARKANSAS

CITY           SKY/WX    TMP DP  RH WIND       PRES   REMARKS
MENA           CLOUDY    55  55 100 CALM      29.79F
MOUNT IDA      PTCLDY    52  51  97 CALM      29.76F FOG
6HR MIN TEMP:  52; 6HR MAX TEMP:  66;

$$

ARZ009-017-025-026-028-230700-
NORTHEAST ARKANSAS

CITY           SKY/WX    TMP DP  RH WIND       PRES   REMARKS
CORNING        FAIR      55  55 100 S6        29.80S
JONESBORO      MOCLDY    56  55  97 CALM      29.80F
6HR MIN TEMP:  54; 6HR MAX TEMP:  65;

NEWPORT        CLEAR     53  52  96 MISG        N/A  FOG
6HR MIN TEMP:  53; 6HR MAX TEMP:  64;

WALNUT RIDGE   CLEAR     54  48  82 S7        29.80S
6HR MIN TEMP:  54; 6HR MAX TEMP:  63;

BLYTHEVILLE    CLEAR     58  57  97 SW5       29.81R
6HR MIN TEMP:  57; 6HR MAX TEMP:  68;

$$

ARZ022-023-033-042-044-230700-
CENTRAL ARKANSAS

CITY           SKY/WX    TMP DP  RH WIND       PRES   REMARKS
LITTLE ROCK    PTCLDY    53  53 100 CALM      29.80F FOG
6HR MIN TEMP:  51; 6HR MAX TEMP:  60;

N LITTLE ROCK    N/A     55  53  95 CALM      29.81S
6HR MIN TEMP:  55; 6HR MAX TEMP:  60;

JACKSONVILLE   FOG       48  48 100 CALM      29.79S VSB 3/4
6HR MIN TEMP:  47; 6HR MAX TEMP:  59;

SEARCY         FOG       48  48 100 CALM      29.82S VSB 1/2
6HR MIN TEMP:  47; 6HR MAX TEMP:  61;

HOT SPRINGS    PTCLDY    53  52  96 E3        29.79F
6HR MIN TEMP:  51; 6HR MAX TEMP:  62;

RUSSELLVILLE   CLEAR     51  50  96 CALM      29.78F FOG
6HR MIN TEMP:  51; 6HR MAX TEMP:  65;

$$

ARZ036-230700-
EAST ARKANSAS

CITY           SKY/WX    TMP DP  RH WIND       PRES   REMARKS
WEST MEMPHIS   CLEAR     58  57  97 CALM      29.81S
6HR MIN TEMP:  58; 6HR MAX TEMP:  70;

$$

ARZ050-053-066-070-073-230700-
SOUTHWEST ARKANSAS

CITY           SKY/WX    TMP DP  RH WIND       PRES   REMARKS
ARKADELPHIA    FAIR      50  49  96 CALM      29.80F FOG
6HR MIN TEMP:  50; 6HR MAX TEMP:  62;

CAMDEN         FOG       50  48  93 CALM      29.80F VSB<1/4
TEXARKANA      CLEAR     61  55  81 S10       29.77F
6HR MIN TEMP:  59; 6HR MAX TEMP:  66;

EL DORADO      CLEAR     52  51  97 S5        29.80F
6HR MIN TEMP:  51; 6HR MAX TEMP:  65;

DE QUEEN       PTCLDY    54  54 100 CALM      29.76F
6HR MIN TEMP:  52; 6HR MAX TEMP:  70;

$$

ARZ056-057-069-230700-
SOUTHEAST ARKANSAS

CITY           SKY/WX    TMP DP  RH WIND       PRES   REMARKS
PINE BLUFF     FOG       51  50  96 CALM      29.81S VSB 1/2
6HR MIN TEMP:  50; 6HR MAX TEMP:  61;

STUTTGART      CLEAR     55  48  76 SE6       29.81F
6HR MIN TEMP:  55; 6HR MAX TEMP:  64;

MONTICELLO     CLEAR     57  55  93 S3        29.82S
6HR MIN TEMP:  54; 6HR MAX TEMP:  65;


$$





USA.gov is the U.S. government's official web portal to all federal, state and local government web resources and services.